Regional Weather Roundup
Issued by NWS Albany, NY

Home | Current Version | Previous Version | Graphics & Text | Print | Product List | Glossary Off
Versions: 1 2 3 4 5 6 7 8 9 10 11 12 13 14 15 16 17 18 19 20 21 22 23 24 25 26 27 28 29 30 31 32 33 34 35 36 37 38 39 40 41 42 43 44 45 46 47 48 49 50

000
ASUS41 KALY 130710
RWRALY

NEW YORK STATE HOURLY WEATHER ROUNDUP
NATIONAL WEATHER SERVICE ALBANY NY
200 AM EST SAT FEB 13 2016

NOTE: "FAIR" INDICATES FEW OR NO CLOUDS BELOW 12,000 FEET WITH NO
SIGNIFICANT WEATHER AND/OR NO OBSTRUCTIONS TO VISIBILITY.

NYZ032-033-038>043-046>054-057>066-NYZ062>081-130800-
EAST


CITY           SKY/WX    TMP DP  RH WIND       PRES   REMARKS
ALBANY         CLOUDY    19   6  57 VRB3      29.83F
GLENS FALLS    CLEAR     14   3  61 S5        29.81F WCI   6
POUGHKEEPSIE   PTCLDY    20  11  68 W7        29.86F WCI  11
NEWBURGH       CLOUDY    16  12  86 W9        29.85F WCI   4
MONTGOMERY     CLEAR     15  12  88 SW5       29.84F WCI   8
WHITE PLAINS   MOCLDY    20  10  65 W8        29.84F WCI  10
ISLIP          CLOUDY    22   9  57 W12       29.87F WCI  10
NEW YORK CITY  CLOUDY    23  11  60 W13       29.90F WCI  11
CENTRAL PARK   CLOUDY    21  10  62 VRB5      29.91F WCI  15
$$

NYZ005>009-017-018-044>046-055-056-130800-
CENTRAL


CITY           SKY/WX    TMP DP  RH WIND       PRES   REMARKS
FULTON         CLOUDY    18   6  59 N10       29.89R WCI   6
SYRACUSE       FLURRIES  12   4  70 NW9       29.88R WCI   0
ROME           LGT SNOW  14  11  87 N6        29.85R FOG     WCI   5
ELMIRA         MOCLDY    12   8  84 VRB3      29.85R
BINGHAMTON     CLOUDY    11   6  81 W10       29.74F WCI  -3
MONTICELLO     PTCLDY    10   9  92 W5        29.78S WCI   2
$$

NYZ026>034-041>043-130800-
NORTH


CITY           SKY/WX    TMP DP  RH WIND       PRES   REMARKS
WATERTOWN      CLOUDY     9   2  73 N8        29.93R WCI  -3
FORT DRUM      NOT AVBL
MASSENA        CLOUDY     6  -3  66 NW16      29.92R WCI -12
SARANAC LAKE   LGT SNOW   9   4  80 MISG      29.69R
PLATTSBURGH    CLOUDY    17   8  67 NW8       29.80R WCI   7
$$

NYZ001>004-010>016-019>021-130800-
WEST


CITY           SKY/WX    TMP DP  RH WIND       PRES   REMARKS
NIAGARA FALLS  CLOUDY    11   0  61 N17       30.03R BLWGSNOWWCI  -6
BUFFALO        LGT SNOW  10   4  76 N15G25    30.02R BLWGSNOWWCI  -7
DUNKIRK        MOCLDY    14  -2  49 W17G26    30.04R WCI  -3
JAMESTOWN      CLOUDY     9   1  72 NW10G18   29.91R WCI  -6
WELLSVILLE     MIX PCPN   9   1  70 NW22G31   29.84R WCI -11
ROCHESTER      CLOUDY    14   5  67 N10G24    29.96R WCI   1
PENN YAN       CLOUDY    16   4  59 NW21G36   29.87R WCI  -1
$$

             KEY
       WCI = WIND CHILL INDEX
       VSB = VISIBILITY
       HX  = HEAT INDEX
$$



USA.gov is the U.S. government's official web portal to all federal, state and local government web resources and services.